When you browse on this site, cookies collect data to enhance your experience and personalize the content and advertising you see.
Visit our Privacy Policy to learn more. By continuing to use the site, you agree to this use of cookies and data.
  • En España
  • Lista de países
  • Para 7 días
  • Temperatura del agua
  • Mapa Satelital
  • El tiempo en el mapa
  • Informadores
  • user-avatar
    Iniciar sesión

    Tiempo cada hora Ben-Gurion

    Hoy, 17 Julio, Miércoles

    Tiempo Temperatura Precipitaciones Viento Presión Humedad
    00:00 +26°C° 0 mm 1 mps 750 mmHg 54%
    01:00 +27°C° 0 mm 1 mps 749 mmHg 47%
    02:00 +28°C° 0 mm 2 mps 748 mmHg 40%
    03:00 +28°C° 0 mm 2 mps 748 mmHg 37%
    04:00 +29°C° 0 mm 2 mps 748 mmHg 33%
    05:00 +30°C° 0 mm 3 mps 748 mmHg 30%
    06:00 +34°C° 0 mm 3 mps 748 mmHg 28%
    07:00 +37°C° 0 mm 4 mps 748 mmHg 25%
    08:00 +41°C° 0 mm 5 mps 748 mmHg 22%
    09:00 +41°C° 0 mm 6 mps 748 mmHg 22%
    10:00 +43°C° 0 mm 8 mps 748 mmHg 23%
    11:00 +43°C° 0 mm 10 mps 748 mmHg 24%
    12:00 +42°C° 0 mm 9 mps 748 mmHg 31%
    13:00 +39°C° 0 mm 8 mps 748 mmHg 39%
    14:00 +38°C° 0 mm 7 mps 747 mmHg 47%
    15:00 +36°C° 0 mm 6 mps 748 mmHg 47%
    16:00 +35°C° 0 mm 5 mps 748 mmHg 47%
    17:00 +35°C° 0 mm 4 mps 748 mmHg 47%
    18:00 +33°C° 0 mm 3 mps 749 mmHg 58%
    19:00 +30°C° 0 mm 3 mps 749 mmHg 69%
    20:00 +28°C° 0 mm 2 mps 749 mmHg 80%
    21:00 +28°C° 0 mm 2 mps 750 mmHg 82%
    22:00 +27°C° 0 mm 1 mps 750 mmHg 84%
    23:00 +25°C° 0 mm 0 mps 750 mmHg 86%

    Mañana, 18 Julio, Jueves

    Tiempo Temperatura Precipitaciones Viento Presión Humedad
    00:00 +27°C° 0 mm 1 mps 750 mmHg 86%
    01:00 +26°C° 0 mm 2 mps 750 mmHg 87%
    02:00 +26°C° 0 mm 3 mps 750 mmHg 87%
    03:00 +26°C° 0 mm 3 mps 750 mmHg 87%
    04:00 +26°C° 0 mm 3 mps 750 mmHg 86%
    05:00 +26°C° 0 mm 3 mps 750 mmHg 86%
    06:00 +28°C° 0 mm 3 mps 750 mmHg 75%
    07:00 +29°C° 0 mm 4 mps 750 mmHg 65%
    08:00 +32°C° 0 mm 4 mps 750 mmHg 54%
    09:00 +33°C° 0 mm 5 mps 751 mmHg 52%
    10:00 +34°C° 0 mm 5 mps 751 mmHg 50%
    11:00 +35°C° 0 mm 6 mps 751 mmHg 48%
    12:00 +34°C° 0 mm 6 mps 751 mmHg 49%
    13:00 +34°C° 0 mm 6 mps 751 mmHg 51%
    14:00 +34°C° 0 mm 7 mps 750 mmHg 52%
    15:00 +33°C° 0 mm 6 mps 750 mmHg 54%
    16:00 +32°C° 0 mm 6 mps 751 mmHg 56%
    17:00 +30°C° 0 mm 6 mps 751 mmHg 58%
    18:00 +29°C° 0 mm 5 mps 751 mmHg 65%
    19:00 +27°C° 0 mm 4 mps 752 mmHg 72%
    20:00 +26°C° 0 mm 3 mps 752 mmHg 79%
    21:00 +25°C° 0 mm 2 mps 752 mmHg 80%
    22:00 +25°C° 0 mm 1 mps 752 mmHg 82%
    23:00 +24°C° 0 mm 1 mps 753 mmHg 84%

    Pasado mañana, 19 Julio, Viernes

    Tiempo Temperatura Precipitaciones Viento Presión Humedad
    00:00 +24°C° 0 mm 1 mps 752 mmHg 84%
    01:00 +24°C° 0 mm 1 mps 752 mmHg 85%
    02:00 +24°C° 0 mm 1 mps 752 mmHg 85%
    03:00 +24°C° 0 mm 1 mps 752 mmHg 85%
    04:00 +24°C° 0 mm 1 mps 753 mmHg 85%
    05:00 +24°C° 0 mm 1 mps 753 mmHg 85%
    06:00 +25°C° 0 mm 1 mps 753 mmHg 79%
    07:00 +27°C° 0 mm 1 mps 753 mmHg 73%
    08:00 +28°C° 0 mm 1 mps 753 mmHg 67%
    09:00 +29°C° 0 mm 2 mps 753 mmHg 61%
    10:00 +31°C° 0 mm 3 mps 753 mmHg 54%
    11:00 +33°C° 0 mm 4 mps 753 mmHg 48%
    12:00 +33°C° 0 mm 4 mps 753 mmHg 49%
    13:00 +33°C° 0 mm 5 mps 752 mmHg 50%
    14:00 +33°C° 0 mm 6 mps 752 mmHg 50%
    15:00 +33°C° 0 mm 6 mps 752 mmHg 53%
    16:00 +32°C° 0 mm 6 mps 752 mmHg 55%
    17:00 +30°C° 0 mm 6 mps 752 mmHg 58%
    18:00 +28°C° 0 mm 4 mps 752 mmHg 65%
    19:00 +27°C° 0 mm 3 mps 752 mmHg 73%
    20:00 +25°C° 0 mm 2 mps 753 mmHg 80%
    21:00 +25°C° 0 mm 2 mps 753 mmHg 81%
    22:00 +24°C° 0 mm 1 mps 753 mmHg 82%
    23:00 +24°C° 0 mm 1 mps 753 mmHg 82%

    20 Julio, Sábado

    Tiempo Temperatura Precipitaciones Viento Presión Humedad
    00:00 +23°C° 0 mm 1 mps 753 mmHg 83%
    01:00 +23°C° 0 mm 1 mps 752 mmHg 83%
    02:00 +23°C° 0 mm 1 mps 752 mmHg 83%
    03:00 +23°C° 0 mm 1 mps 752 mmHg 84%
    04:00 +23°C° 0 mm 1 mps 752 mmHg 85%
    05:00 +23°C° 0 mm 1 mps 752 mmHg 85%
    06:00 +24°C° 0 mm 2 mps 752 mmHg 79%
    07:00 +26°C° 0 mm 2 mps 753 mmHg 72%
    08:00 +28°C° 0 mm 2 mps 753 mmHg 65%
    09:00 +29°C° 0 mm 3 mps 753 mmHg 60%
    10:00 +31°C° 0 mm 3 mps 753 mmHg 54%
    11:00 +33°C° 0 mm 4 mps 753 mmHg 49%
    12:00 +33°C° 0 mm 4 mps 752 mmHg 49%
    13:00 +33°C° 0 mm 5 mps 752 mmHg 50%
    14:00 +33°C° 0 mm 5 mps 752 mmHg 50%
    15:00 +32°C° 0 mm 5 mps 752 mmHg 53%
    16:00 +32°C° 0 mm 5 mps 752 mmHg 56%
    17:00 +30°C° 0 mm 5 mps 752 mmHg 59%
    18:00 +28°C° 0 mm 4 mps 752 mmHg 67%
    19:00 +27°C° 0 mm 3 mps 752 mmHg 75%
    20:00 +25°C° 0 mm 2 mps 752 mmHg 82%
    21:00 +25°C° 0 mm 1 mps 753 mmHg 83%
    22:00 +24°C° 0 mm 1 mps 753 mmHg 84%
    23:00 +24°C° 0 mm 1 mps 753 mmHg 85%

    21 Julio, Domingo

    Tiempo Temperatura Precipitaciones Viento Presión Humedad
    00:00 +24°C° 0 mm 1 mps 752 mmHg 85%
    01:00 +23°C° 0 mm 1 mps 752 mmHg 85%
    02:00 +23°C° 0 mm 1 mps 752 mmHg 86%
    03:00 +23°C° 0 mm 1 mps 752 mmHg 86%
    04:00 +23°C° 0 mm 1 mps 752 mmHg 87%
    05:00 +23°C° 0 mm 2 mps 752 mmHg 87%
    06:00 +25°C° 0 mm 2 mps 752 mmHg 80%
    07:00 +26°C° 0 mm 2 mps 752 mmHg 72%
    08:00 +28°C° 0 mm 2 mps 752 mmHg 64%
    09:00 +30°C° 0 mm 2 mps 752 mmHg 59%
    10:00 +31°C° 0 mm 3 mps 752 mmHg 53%
    11:00 +34°C° 0 mm 4 mps 752 mmHg 47%
    12:00 +34°C° 0 mm 4 mps 751 mmHg 48%
    13:00 +34°C° 0 mm 5 mps 751 mmHg 49%
    14:00 +34°C° 0 mm 5 mps 751 mmHg 50%
    15:00 +33°C° 0 mm 5 mps 750 mmHg 53%
    16:00 +32°C° 0 mm 5 mps 750 mmHg 56%
    17:00 +32°C° 0 mm 5 mps 750 mmHg 60%
    18:00 +29°C° 0 mm 4 mps 750 mmHg 68%
    19:00 +28°C° 0 mm 3 mps 751 mmHg 76%
    20:00 +26°C° 0 mm 2 mps 751 mmHg 84%
    21:00 +26°C° 0 mm 2 mps 751 mmHg 85%
    22:00 +25°C° 0 mm 1 mps 751 mmHg 85%
    23:00 +25°C° 0 mm 1 mps 751 mmHg 86%

    22 Julio, Lunes

    Tiempo Temperatura Precipitaciones Viento Presión Humedad
    00:00 +25°C° 0 mm 1 mps 751 mmHg 86%
    01:00 +24°C° 0 mm 1 mps 751 mmHg 87%
    02:00 +24°C° 0 mm 1 mps 750 mmHg 87%
    03:00 +24°C° 0 mm 1 mps 750 mmHg 88%
    04:00 +24°C° 0 mm 1 mps 750 mmHg 88%
    05:00 +24°C° 0 mm 1 mps 750 mmHg 88%
    06:00 +26°C° 0 mm 1 mps 751 mmHg 81%
    07:00 +27°C° 0 mm 1 mps 751 mmHg 73%
    08:00 +29°C° 0 mm 1 mps 751 mmHg 65%
    09:00 +31°C° 0 mm 2 mps 751 mmHg 59%
    10:00 +33°C° 0 mm 3 mps 751 mmHg 54%
    11:00 +35°C° 0 mm 5 mps 750 mmHg 48%
    12:00 +35°C° 0 mm 5 mps 750 mmHg 50%
    13:00 +35°C° 0 mm 5 mps 749 mmHg 52%
    14:00 +35°C° 0 mm 6 mps 749 mmHg 53%
    15:00 +34°C° 0 mm 6 mps 749 mmHg 56%
    16:00 +33°C° 0 mm 5 mps 749 mmHg 59%
    17:00 +32°C° 0 mm 5 mps 749 mmHg 61%
    18:00 +30°C° 0 mm 4 mps 749 mmHg 69%
    19:00 +28°C° 0 mm 3 mps 750 mmHg 77%
    20:00 +27°C° 0 mm 2 mps 750 mmHg 86%
    21:00 +26°C° 0 mm 1 mps 750 mmHg 86%
    22:00 +26°C° 0 mm 1 mps 750 mmHg 86%
    23:00 +26°C° 0 mm 1 mps 750 mmHg 86%
    Mostrar más